Find GOES 6

NORAD ID: 14050 Int'l Des: 1983-041 Owner: NOAA Country: US operational
HEOCIRCULAR

リアルタイム位置

3D地球を読み込み中...

GOES 6について

説明を読み込み中...

次回通過

Passes for default location (London). Set your location on the main map for personalized predictions.

高度履歴

Loading altitude history...

軌道要素

1 14050U 83041A 26105.63293889 -.00000027 00000-0 00000+0 0 9997
2 14050 10.2912 321.6411 0001465 312.9222 39.6148 1.00222636215384
Epoch: Apr 15, 2026 • Age: 15 hours

現在のステータス

高度 35801.1 km
速度 3.07 km/s
衛星直下点 -6.99°S, 118.05°W
打ち上げ日 Apr 28, 1983
運用期間 42.9 years
タイプ weather

技術仕様

分類 Payload
質量 399.00 kg
乾燥質量 296.00 kg
総質量 839.00 kg
長さ 3.70 m
直径 2.20 m
スパン 4.40 m
形状 Cyl
製造者 HSES
バスタイプ HS-371
フェーズステータス In Orbit
所有者/国 NOAA/US

Most Searched